Overview Statistics Trail Chart Weather Telemetry Raw packets
 

This is the latest recevied weather packets stored in our database for station/object KB1JL-13. If no packets are shown the sender has not sent any weather packets the latest 10 day(s).

<< 106 107 108 109 110 111 >>
Time Temp. Humidity Pressure Rain* Wind** Luminosity Snow
1787776841 26.11° C 70% 1029.1 hPa 0 mm - 381 W/m² -
1787776540 26.11° C 69% 1029.1 hPa 0 mm - 403 W/m² -
1787776238 25.56° C 71% 1029.1 hPa 0 mm - 419 W/m² -
1787775932 25.56° C 74% 1029.5 hPa 0 mm - 432 W/m² -
1787775627 25° C 72% 1029.8 hPa 0 mm - 439 W/m² -
1787775325 24.44° C 74% 1029.1 hPa 0 mm - 155 W/m² -
1787775020 25° C 74% 1029.5 hPa 0 mm - 163 W/m² -
1787774719 26.11° C 72% 1029.5 hPa 0 mm - 164 W/m² -
1787774413 26.11° C 71% 1029.5 hPa 0 mm - 570 W/m² -
1787774108 26.11° C 74% 1029.1 hPa 0 mm - 551 W/m² -
1787773806 26.67° C 71% 1029.5 hPa 0 mm - 538 W/m² -
1787773505 26.67° C 69% 1029.5 hPa 0 mm - 534 W/m² -
1787773202 26.11° C 70% 1029.5 hPa 0 mm - 527 W/m² -
1787772897 26.11° C 70% 1029.8 hPa 0 mm - 124 W/m² -
1787772591 26.67° C 67% 1029.5 hPa 0 mm - 555 W/m² -
1787772285 26.11° C 69% 1029.8 hPa 0 mm - 544 W/m² -
1787771984 25.56° C 68% 1029.8 hPa 0 mm - 192 W/m² -
1787771679 26.11° C 66% 1029.5 hPa 0 mm - 587 W/m² -
1787771372 25.56° C 66% 1029.5 hPa 0 mm - 632 W/m² -
1787771067 25° C 68% 1029.8 hPa 0 mm - 164 W/m² -
1787770761 25.56° C 66% 1029.8 hPa 0 mm - 147 W/m² -
1787770455 26.11° C 65% 1029.8 hPa 0 mm - 242 W/m² -
1787770154 26.11° C 67% 1029.8 hPa 0 mm - 603 W/m² -
1787769848 26.11° C 69% 1029.8 hPa 0 mm - 648 W/m² -
1787769548 26.11° C 64% 1029.8 hPa 0 mm - 599 W/m² -

* Rain latest hour (hover to see other rain measurements)
** Current wind speed in m/s (hover to see current wind gust speed)